Location: *
(37.5724°S, 58.0067°E)
Time: 11:44:21
(UTC+00:00)

USA 305 - Pass Details

Date: 26 September 2020
Orbit: 566 x 580 km, 54.0° (Epoch: 28 October)

Event Time Altitude Azimuth Distance (km) Brightness Sun altitude
Rises 14:43:33 0° 223° (SW) 2,828 7.3 -7.8°
Reaches altitude 10° 14:45:54 10° 216° (SW) 1,924 6.3 -8.3°
Maximum altitude 14:50:09 47° 142° (SE) 787 3.4 -9.1°
Enters shadow 14:53:54 13° 69° (ENE) 1,737 4.7 -9.8°
